sat.trackr.live / text

‹ back to catalog

WEIHAI-1 02

NORAD 58925 · 2024-024J

PAYLOAD ACTIVE UNKNOWN

§ Identity

Operator
Country
PRC
Launch date
2024-02-03
Launch site
SCSLA
Launch vehicle
Mass (kg)
RCS (m²)

External: N2YO · Heavens-Above · Gunter

§ Orbital elements

Epoch: 2026-09-06T07:33:20.143008Z

Period
87.64 min
Inclination
97.2775°
Eccentricity
0.0013598
Mean motion
16.43124037 rev/d
Perigee alt
148.6 km
Apogee alt
166.4 km
Semi-major
6,535.6 km
B*
3.4848e-4
RAAN
346.8455°
Arg perigee
271.1309°
Mean anomaly
88.8434°
Rev number
18,260

§ Raw data

WEIHAI-1 021 58925U 24024J   26249.31481647  .09942597  24887-5  34848-3 0  99972 58925  97.2775 346.8455 0013598 271.1309  88.8434 16.43124037182605

JSON: /api/v1/satellites/58925 · /tle

For live sub-satellite position, see the globe view (requires WebGL).

§ Visibility from observer

Set your observer location to see the next 7 days of passes ≥ 10°. The values pass through the URL so the page stays shareable.

No JS? Fill the form by hand. The geolocation button needs JavaScript.

§ Radio — SatNOGS DB

ModeDescriptionDownlinkUplink
FM S-band telemetry 2.246 GHz

1 transmitter · refreshed weekly from db.satnogs.org